Location: ??
(34.9170°N, 135.5016°E)
Time: 17:00:16
(UTC+00:00)

Vanguard 3 - Visible Passes

Search period start: 26 February 2021 00:00
Search period end: 08 March 2021 00:00
Orbit: 508 x 3261 km, 33.3° (Epoch: 25 February)

Date Brightness Start Highest point End Pass type
(mag) Time Alt. Az. Time Alt. Az. Time Alt. Az.
26 Feb 7.9 10:49:43 10° W 11:01:34 79° S 11:03:12 59° ESE visible
26 Feb 10.2 13:06:20 10° W 13:07:46 14° W 13:07:46 14° W visible
27 Feb 8.8 09:31:58 10° W 09:46:39 83° S 09:53:22 17° E visible
27 Feb 8.5 11:49:31 10° W 11:57:56 51° WSW 11:57:56 51° WSW visible
28 Feb 8.3 10:32:08 10° W 10:45:04 78° S 10:48:06 43° ESE visible
28 Feb 9.9 12:49:17 10° W 12:52:39 20° W 12:52:39 20° W visible
01 Mar 9.0 09:14:11 10° W 09:29:56 84° S 09:38:17 12° E visible
01 Mar 8.3 11:32:07 10° W 11:42:50 57° SSW 11:42:50 57° SSW visible
02 Mar 8.6 10:14:28 10° W 10:28:27 75° SSW 10:33:01 31° ESE visible
02 Mar 9.6 12:32:09 10° W 12:37:35 26° WSW 12:37:35 26° WSW visible
03 Mar 8.4 11:14:35 10° W 11:26:25 54° SSW 11:27:48 49° S visible
04 Mar 8.9 09:56:44 10° W 10:11:44 73° SSW 10:18:01 22° ESE visible
04 Mar 9.5 12:14:54 10° W 12:22:35 29° SW 12:22:35 29° SW visible
05 Mar 8.8 10:56:59 10° W 11:09:41 51° SSW 11:12:50 36° SSE visible
06 Mar 9.2 09:38:56 10° W 09:54:53 70° SSW 10:03:06 14° ESE visible
06 Mar 9.5 11:57:37 10° W 12:06:47 27° SW 12:07:40 27° SW visible
07 Mar 9.3 10:39:18 10° W 10:52:48 48° SSW 10:57:59 25° SSE visible
07 Mar 10.5 13:02:03 10° WSW 13:02:33 10° WSW 13:02:33 10° WSW visible
